1326652770479038,  0.01801500859, -0.00690757859,  0.00027027289, -0.00000483795,  0.00000707050, -0.00035199409,  0.01727204235,  0.00042165394,  0.00000728381,  0.00000467829,  0.00010005948,  0.04753315741,  0.00124952082,  0.00015560320,  0.00000868553,  0.00010597906, -0.00001133903,  0.00000139674,  0.00007321949, -0.00000055554,  0.00004029475
1326652816281093,  0.01645625945, -0.00783851526,  0.00022340767, -0.00001913898, -0.00000244900, -0.00028236327,  0.01881781396,  0.00011749015, -0.00000500976,  0.00000623602,  0.00024287406,  0.04308462698,  0.00108800863,  0.00033193687, -0.00003161790,  0.00008987246,  0.00000624125, -0.00000040919,  0.00005173413, -0.00000145282,  0.00002568987
1326652819881250,  0.01493163628, -0.00798599879,  0.00015575903, -0.00001956892, -0.00000673399, -0.00022774269,  0.02103529683,  0.00001105830, -0.00001103077,  0.00000930130,  0.00031514464,  0.03952265576,  0.00096904738,  0.00026379490, -0.00002675804,  0.00008618854,  0.00001398122, -0.00000055418,  0.00005112785, -0.00000209595,  0.00002393121
1326652823481443,  0.01375712708, -0.00770347653,  0.00007551803, -0.00003025873, -0.00000070317, -0.00017967532,  0.02362229387, -0.00002378315,  0.00000374490,  0.00000697465,  0.00037343081,  0.03794315986,  0.00089732056,  0.00002435015, -0.00006073794,  0.00008482181,  0.00001217791, -0.00000445716,  0.00004859021, -0.00000263272,  0.00002340450
1326652826881586,  0.01282193128, -0.00699871807,  0.00004849061, -0.00002589919,  0.00000417093, -0.00013304565,  0.02648764668,  0.00005942095,  0.00000897810, -0.00001151860,  0.00042273264,  0.03789917036,  0.00081855576, -0.00006522648, -0.00004827004,  0.00008197578,  0.00001541274, -0.00000364815,  0.00005103839, -0.00000175882,  0.00002284168
1326652830481731,  0.01227060830, -0.00621024673,  0.00005918523, -0.00001784806,  0.00000342526, -0.00010429364,  0.03000894478,  0.00017621595,  0.00000696789, -0.00000729662,  0.00047415164,  0.04050100924,  0.00076984427, -0.00033566686, -0.00002262691,  0.00008891644,  0.00000857502, -0.00000252608,  0.00004890129, -0.00000128435,  0.00002363992
1326652834081906,  0.01198490938, -0.00513848342, -0.00007132656, -0.00002336977,  0.00000604631, -0.00008358164,  0.03390994646,  0.00024333601, -0.00000209933, -0.00000670617,  0.00053248473,  0.04480618283,  0.00080647515, -0.00049272764, -0.00000679982,  0.00010628438,  0.00000331775, -0.00000241613,  0.00005485337, -0.00000152443,  0.00002745413
1326652838082072,  0.01182781761, -0.00357388571, -0.00014300145, -0.00002628484,  0.00000416544, -0.00005636357,  0.03776560224,  0.00038970083,  0.00000883784, -0.00001838363,  0.00058635787,  0.05002059593,  0.00088580296, -0.00051763459, -0.00002051058,  0.00009506311,  0.00000791659, -0.00000305621,  0.00006025854, -0.00000157348,  0.00002774005
1326652841682722,  0.01189152161, -0.00122758709, -0.00009909477, -0.00002208161, -0.00000035888,  0.00000029484,  0.04106145909,  0.00058602810,  0.00003678259, -0.00001651846,  0.00064694840,  0.05564133330,  0.00100187286, -0.00056783645, -0.00004753995,  0.00009942614,  0.00000741452, -0.00000552359,  0.00007084267, -0.00000205757,  0.00003251135
1326652845482392,  0.01243689564,  0.00184136156,  0.00015767035, -0.00000602513, -0.00000763460,  0.00007524168,  0.04204206863,  0.00073807526,  0.00001913870, -0.00001162581,  0.00065617430,  0.06000470619,  0.00118270278, -0.00033401943,  0.00000360942,  0.00008617260,  0.00000150203, -0.00000076468,  0.00007271272, -0.00000122464,  0.00002920887
1326652849082597,  0.01354585590,  0.00462815235,  0.00022134994, -0.00000613288, -0.00001189510,  0.00016517874,  0.04097459245,  0.00088755014,  0.00002076631, -0.00003008436,  0.00063277393,  0.06333483462,  0.00125409754, -0.00038236431,  0.00000526340,  0.00007929440, -0.00000552104, -0.00000009033,  0.00006705557,  0.00000015047,  0.00002581834
1326652852682723,  0.01578613990,  0.00758437686,  0.00036999931, -0.00000092190, -0.00001466283,  0.00030666419,  0.03989636740,  0.00100454968,  0.00002685199, -0.00003490299,  0.00066016030,  0.07033547865,  0.00150684463, -0.00062855239, -0.00000709836,  0.00010240602, -0.00001913435, -0.00000044229,  0.00008385329,  0.00000091654,  0.00003965261
1326652857082923,  0.01619355728,  0.00773265403,  0.00037069344,  0.00004098310,  0.00000064047,  0.00030816097,  0.03779004533,  0.00103139367,  0.00008716813,  0.00003370000,  0.00060428031,  0.06897856573,  0.00060707121,  0.00144975178, -0.00007254653,  0.00007734830,  0.00002102489, -0.00000497883,  0.00008877324, -0.00000294783,  0.00003519229
1326652860883123,  0.01494739607,  0.00553040660,  0.00042755610,  0.00001043736,  0.00000994111,  0.00022345442,  0.03300950164,  0.00078954321,  0.00002247759,  0.00003604545,  0.00050829909,  0.05713519022,  0.00045092344,  0.00110833514, -0.00002759469,  0.00007094987,  0.00002121974, -0.00000118006,  0.00006001599, -0.00000104274,  0.00002498155
1326652864483249,  0.01434422727,  0.00394954664,  0.00053562761,  0.00000904214,  0.00000827782,  0.00019175255,  0.02838527007,  0.00050560569,  0.00000924928,  0.00001172160,  0.00044496621,  0.04836158899,  0.00072440764,  0.00069099103,  0.00000342544,  0.00007406300,  0.00000267545,  0.00000002170,  0.00003722379,  0.00000026262,  0.00002104960
1326652868083412,  0.01385610750,  0.00255300480,  0.00054207757,  0.00000499743,  0.00000943362,  0.00017835812,  0.02437509217,  0.00035458198,  0.00000016289,  0.00000340452,  0.00038476948,  0.04115991812,  0.00049891953,  0.00071560007,  0.00001505317,  0.00007224192,  0.00000719237,  0.00000016768,  0.00003849108,  0.00000067041,  0.00002101257
1326652871683573,  0.01327570630,  0.00116751556,  0.00049977131,  0.00000492143,  0.00001338213,  0.00016072942,  0.02101305416,  0.00027487108,  0.00000329121,  0.00000752767,  0.00032819848,  0.03465472634,  0.00033773984,  0.00066348296, -0.00000575614,  0.00007004283,  0.00001313885, -0.00000074671,  0.00004073445,  0.00000012896,  0.00002089050
1326652875283734,  0.01257179028, -0.00016173766,  0.00046320882,  0.00000209454,  0.00001340717,  0.00012756991,  0.01824856939,  0.00019764386, -0.00000705549,  0.00000166699,  0.00028310926,  0.02877297170,  0.00029788776,  0.00050513021,  0.00000101010,  0.00006637762,  0.00001171984,  0.00000043914,  0.00003585493,  0.00000042952,  0.00001881627
1326652878883896,  0.01196196773, -0.00132205199,  0.00041074872, -0.00000014010,  0.00001287325,  0.00009003936,  0.01605170080,  0.00018251400, -0.00000674247, -0.00000433029,  0.00025161130,  0.02409318980,  0.00009797795,  0.00040927273, -0.00000238335,  0.00005658011,  0.00001689460, -0.00000008688,  0.00004019734,  0.00000033068,  0.00001744611
1326652882284044,  0.01158723949, -0.00217967657,  0.00036583177, -0.00000053604,  0.00001179637,  0.00005867356,  0.01411488779,  0.00020184958, -0.00001698940, -0.00000928443,  0.00022039925,  0.02093372531,  0.00007831699,  0.00026678088,  0.00000134832,  0.00005952604,  0.00001173460,  0.00000140952,  0.00003227715,  0.00000083754,  0.00001547790
1326652885884203,  0.01136981764, -0.00286286850,  0.00032648388, -0.00000218034,  0.00001207362,  0.00003154303,  0.01235503416,  0.00025616921, -0.00001968038, -0.00001609320,  0.00019137428,  0.01885746188, -0.00000751883,  0.00015216321, -0.00000222553,  0.00005461439,  0.00001332185,  0.00000108779,  0.00003240125,  0.00000093889,  0.00001435397
1326652889484372,  0.01128168376, -0.00341872839,  0.00028128048, -0.00000185361,  0.00001084151,  0.00000254087,  0.01083574875,  0.00035756784, -0.00001959137, -0.00001753800,  0.00016941216,  0.01793241757, -0.00009694340,  0.00003348384, -0.00000740946,  0.00005401730,  0.00001321191,  0.00000094358,  0.00003178577,  0.00000083575,  0.00001368749
1326652893284524,  0.01133593973, -0.00379532744,  0.00024525665, -0.00000178102,  0.00001080059, -0.00002259001,  0.00943203183,  0.00048718661, -0.00001659178, -0.00002647753,  0.00014782429,  0.01815899325, -0.00018050297, -0.00007000521, -0.00000946197,  0.00005026755,  0.00001179604,  0.00000017844,  0.00002913709,  0.00000124777,  0.00001267912
1326652896684686,  0.01148723041, -0.00395404417,  0.00021424344, -0.00000083404,  0.00001015425, -0.00004349610,  0.00823002072,  0.00065189670, -0.00002877656, -0.00002272189,  0.00012771044,  0.01927804354, -0.00024979519, -0.00015912650, -0.00002030591,  0.00005160486,  0.00001163577,  0.00000177248,  0.00002830919,  0.00000102970,  0.00001247724
1326652904485031,  0.01169676695, -0.00394395321,  0.00017962994,  0.00000490917,  0.00001059471, -0.00006149288,  0.00716133008,  0.00084691522, -0.00004521050, -0.00002335037,  0.00010480052,  0.02117138102, -0.00032971959, -0.00021884994, -0.00005453654,  0.00005633563,  0.00001010927,  0.00000662226,  0.00002620414,  0.00000178476,  0.00001333566
1326652908485206,  0.01193104478, -0.00377956350,  0.00016390302,  0.00000166601,  0.00000935613, -0.00008123201,  0.00621451518,  0.00100109985, -0.00003637073, -0.00002285185,  0.00008908835,  0.02380858860, -0.00043407839, -0.00027065456, -0.00004222705,  0.00005492376,  0.00001295352,  0.00000339407,  0.00002450191,  0.00000138512,  0.00001206983
1326652912085365,  0.01197479458, -0.00340764220,  0.00012231764,  0.00000442847,  0.00000825142, -0.00009097162,  0.00544570533,  0.00116317307, -0.00004709904, -0.00000898373,  0.00006734520,  0.02582054837, -0.00056141271, -0.00014411457, -0.00004032026,  0.00005639091,  0.00000729260,  0.00000329183,  0.00001732086,  0.00000054107,  0.00001120197
1326652915685545,  0.01168026915, -0.00291507141,  0.00010521180,  0.00000997078,  0.00000867190, -0.00008860668,  0.00487181597,  0.00111635470, -0.00004284287,  0.00001081137,  0.00005143772,  0.02608358193, -0.00055516490,  0.00014249040, -0.00005612252,  0.00005809653, -0.00000679895,  0.00000565646,  0.00001608424, -0.00000072246,  0.00001182157
1326652919285687,  0.01116362100, -0.00245669014,  0.00010871818,  0.00000624697,  0.00000395514, -0.00007779016,  0.00447262950,  0.00095433800, -0.00003363484,  0.00001095348,  0.00003934195,  0.02487034647, -0.00050695941,  0.00013476873, -0.00005529839,  0.00005872245, -0.00000164291,  0.00000620488,  0.00001511591, -0.00000014676,  0.00001131822
1326652922885875,  0.01061503546, -0.00208305634,  0.00010711569,  0.00000349606,  0.00000375136, -0.00006708004,  0.00418880499,  0.00079330807, -0.00002223440,  0.00001573570,  0.00003603742,  0.02302629260, -0.00038585926,  0.00024630597, -0.00002925811,  0.00005546399, -0.00001087696,  0.00000418090,  0.00001817053, -0.00000094108,  0.00001029674
1326652926486021,  0.01010472102, -0.00178206064,  0.00010202998,  0.00000150016,  0.00000270584, -0.00005335677,  0.00398271133,  0.00064666157, -0.00001823007,  0.00001058757,  0.00003489647,  0.02097018667, -0.00033197397,  0.00016402801, -0.00002383589,  0.00005691324, -0.00000585362,  0.00000422319,  0.00001559102, -0.00000044547,  0.00000981044
1326652930086163,  0.00970604398, -0.00151585663,  0.00010291055, -0.00000044128,  0.00000114501, -0.00004416490,  0.00378524287,  0.00054241927, -0.00001407543,  0.00000845217,  0.00003251608,  0.01953755990, -0.00028090148,  0.00012601470, -0.00002122342,  0.00005660901, -0.00000540319,  0.00000414349,  0.00001499571, -0.00000048708,  0.00000952212
1326652933686328,  0.00937767426, -0.00128566453,  0.00010445071, -0.00000100325,  0.00000070294, -0.00003646896,  0.00361150391,  0.00046882731, -0.00001071516,  0.00000706813,  0.00003145938,  0.01845424085, -0.00022501934,  0.00010652475, -0.00001603079,  0.00005518661, -0.00000803411,  0.00000385222,  0.00001536134, -0.00000070377,  0.00000918225
1326652937286484,  0.00911879155, -0.00107446970,  0.00011519092, -0.00000167882, -0.00000185723, -0.00003157879,  0.00343258680,  0.00041990815, -0.00000971177,  0.00000417770,  0.00002906882,  0.01788849814, -0.00020739726,  0.00002180577, -0.00001454783,  0.00005538789,  0.00000018972,  0.00000380072,  0.00001352348, -0.00000016630,  0.00000918937
1326652941086653,  0.00891194896, -0.00088588697,  0.00014392897, -0.00000393056, -0.00000325230, -0.00002419399,  0.00326540547,  0.00038612053, -0.00000564283, -0.00000023036,  0.00002434497,  0.01780164267, -0.00017372711, -0.00005295091, -0.00000923281,  0.00005144956,  0.00000364546,  0.00000322047,  0.00001434862,  0.00000024677,  0.00000908590
1326652944686813,  0.00880038896, -0.00070369736,  0.00021233171, -0.00000286747, -0.00000838376, -0.00003269977,  0.00310136895,  0.00038344077, -0.00000231691, -0.00000325803,  0.00001466255,  0.01890340735, -0.00017544109, -0.00016909665, -0.00002178370,  0.00004744612,  0.00000839254,  0.00000565974,  0.00001876157,  0.00000121639,  0.00000940968
1326652948286975,  0.00872680785, -0.00050527766,  0.00030947225, -0.00000314526, -0.00001199849, -0.00005174249,  0.00300783051,  0.00040412226, -0.00000081302, -0.00000444441,  0.00000323988,  0.02105176884, -0.00024132508, -0.00026654683, -0.00003313591,  0.00003177874,  0.00001153642,  0.00000293549,  0.00002239671,  0.00000167768,  0.00000810765
1326652954087234,  0.00851151843, -0.00029665090,  0.00031644426, -0.00001749049,  0.00000227222, -0.00005308471,  0.00302352868,  0.00047718352, -0.00000884081,  0.00000218170, -0.00000888147,  0.02290933266, -0.00037037118,  0.00016595044,  0.00003843399,  0.00002492462, -0.00000413327, -0.00000220307,  0.00001316880,  0.00000047893,  0.00000606960
1326652957487383,  0.00803311636, -0.00033585584,  0.00025405961, -0.00000665057,  0.00000436673, -0.00004390846,  0.00303425043,  0.00046034862, -0.00000735434,  0.00000430629, -0.00001064491,  0.02110323800, -0.00031046832,  0.00020140683, -0.00000436533,  0.00004217549, -0.00000872837,  0.00000004749,  0.00001350666, -0.00000000831,  0.00000709719
1326652960887539,  0.00764734914, -0.00038499621,  0.00022346125, -0.00000611081,  0.00000459234, -0.00004290077,  0.00303910626,  0.00041935846, -0.00000594406,  0.00000325997, -0.00000710765,  0.01938018414, -0.00026338852,  0.00015855478, -0.00000948051,  0.00005233002, -0.00000370261,  0.00000173082,  0.00001312182, -0.00000006236,  0.00000863387
1326652964487694,  0.00724585482, -0.00043587304,  0.00020112557, -0.00000984875,  0.00000474134, -0.00003766606,  0.00302325731,  0.00037340735, -0.00000445777,  0.00000222556, -0.00000324740,  0.01771725089, -0.00019707437,  0.00014874864, -0.00000264596,  0.00005110803, -0.00000677401,  0.00000004713,  0.00001284380, -0.00000001430,  0.00000818556
1326652968087862,  0.00690972239, -0.00046566841,  0.00015774722, -0.00000826922,  0.00000310483, -0.00003187246,  0.00302085100,  0.00035535472, -0.00000428979,  0.00000211743, -0.00000192139,  0.01651236168, -0.00017490378,  0.00011176618,  0.00000374961,  0.00005344815, -0.00000280950, -0.00000212456,  0.00001196484,  0.00000007123,  0.00000889144
1326652971688042,  0.00660377523, -0.00048403652,  0.00011667610, -0.00000476634,  0.00000275205, -0.00002894940,  0.00300989922,  0.00034229987, -0.00000403561,  0.00000282476, -0.00000285835,  0.01551722567, -0.00015173479,  0.00010502450,  0.00000320616,  0.00005153883, -0.00000392355, -0.00000203096,  0.00001112961,  0.00000013304,  0.00000837398
1326652975288172,  0.00636414279, -0.00050612734,  0.00007629678, -0.00000067844,  0.00000207224, -0.00002327760,  0.00300921724,  0.00032757968, -0.00000391318,  0.00000339059, -0.00000193508,  0.01457919471, -0.00012902608,  0.00008644918,  0.00000263147,  0.00005276167, -0.00000115168, -0.00000199814,  0.00001100017,  0.00000000673,  0.00000883167
1326652978688325,  0.00618136004, -0.00052233103,  0.00004298331,  0.00000561553,  0.00000053316, -0.00001838788,  0.00300006247,  0.00031232568, -0.00000327680,  0.00000488249, -0.00000173967,  0.01378365670, -0.00010056324,  0.00009017793, -0.00000150353,  0.00005048820, -0.00000473657, -0.00000089181,  0.00001088807,  0.00000002613,  0.00000826089
1326652982288481,  0.00605230609, -0.00053555359,  0.00002726162,  0.00000650306,  0.00000070356, -0.00001222669,  0.00299704383,  0.00028401511, -0.00000312074,  0.00000482267, -0.00000062783,  0.01302515028, -0.00008525227,  0.00007476460, -0.00000116340,  0.00005095663, -0.00000133926, -0.00000029043,  0.00001046897, -0.00000002740,  0.00000835452
1326652985888671,  0.00595927789, -0.00054346868,  0.00002226305,  0.00000462062, -0.00000017367, -0.00000768092,  0.00298936199,  0.00024918046, -0.00000171567,  0.00000475595,  0.00000113236,  0.01228462908, -0.00005086703,  0.00007799720,  0.00000065323,  0.00004807607, -0.00000740695, -0.00000062116,  0.00001147472,  0.00000012037,  0.00000790038
1326652989488802,  0.00590058389, -0.00054598450,  0.00001982516,  0.00000155842,  0.00000037814, -0.00000701160,  0.00297968226,  0.00021671496, -0.00000234899,  0.00000380147,  0.00000137117,  0.01164634561, -0.00005713225,  0.00006323478,  0.00000138946,  0.00004699281,  0.00000134722, -0.00000172991,  0.00000966688, -0.00000008286,  0.00000733125
1326652992888950,  0.00582320723, -0.00054547969,  0.00000884211,  0.00000574637,  0.00000002995, -0.00000812654,  0.00293206040,  0.00019788007, -0.00000230991,  0.00000491036,  0.00000439480,  0.01107420551, -0.00004520569,  0.00006282817,  0.00000051098,  0.00002003180, -0.00000219212, -0.00000029400,  0.00000820762,  0.00000009289,  0.00000453419
1326652996489113,  0.00577940860, -0.00054786072,  0.00001086663,  0.00000513827, -0.00000007592, -0.00000314786,  0.00291364261,  0.00016346268, -0.00000233730,  0.00000444456,  0.00000431245,  0.01050701240, -0.00004253844,  0.00005070506, -0.00000219249,  0.00001717358, -0.00000022691,  0.00000059277,  0.00000762844, -0.00000001410,  0.00000404335
1326653000089271,  0.00576881082, -0.00054774065,  0.00000976059,  0.00000471575,  0.00000127738,  0.00000190156,  0.00290045651,  0.00013829407, -0.00000344461,  0.00000321368,  0.00000074395,  0.01015796621, -0.00005880574,  0.00001893157, -0.00000381040,  0.00001694990,  0.00000270270,  0.00000092655,  0.00000778482,  0.00000016844,  0.00000375023
1326653003689432,  0.00579328068, -0.00055775641,  0.00000604205,  0.00000447464,  0.00000091012,  0.00000259272,  0.00291208165,  0.00012326626, -0.00000361340,  0.00000289361, -0.00000581553,  0.01014542676, -0.00008546475,  0.00000126451, -0.00000706733,  0.00001814505,  0.00000261242,  0.00000145482,  0.00000821302,  0.00000041057,  0.00000422801
1326653010089715,  0.00582573276, -0.00056850011,  0.00001512956,  0.00000039502, -0.00000362483,  0.00000604101,  0.00292149642,  0.00010941618,  0.00000204434,  0.00000375668, -0.00000751389,  0.01009403475, -0.00000579433,  0.00008362310,  0.00000566715,  0.00000884563, -0.00000097127, -0.00000013539,  0.00001629401,  0.00000073725,  0.00000440003
1326653034490794,  0.00583875315, -0.00054232995,  0.00003407958,  0.00000141585, -0.00000172635,  0.00000575408,  0.00292182085,  0.00008737121,  0.00000044827,  0.00000218402,  0.00000625382,  0.00955220042, -0.00001228679,  0.00001838518,  0.00000058095,  0.00001863693, -0.00000319331,  0.00000007345,  0.00000991179,  0.00000011991,  0.00000408970
1326653038090947,  0.00588447174, -0.00051526377,  0.00004215126,  0.00000057789, -0.00000099955,  0.00000234485,  0.00296728525,  0.00007610333,  0.00000119003,  0.00000112163,  0.00000911153,  0.00948453728,  0.00001484619, -0.00000351947, -0.00000030450,  0.00002848372, -0.00000401594, -0.00000061931,  0.00001046795,  0.00000025115,  0.00000526945
1326653041891118,  0.00591823562, -0.00047173793,  0.00004397621, -0.00000037192, -0.00000057853,  0.00000440868,  0.00299735884,  0.00007323885,  0.00000080104,  0.00000025422,  0.00001136124,  0.00959660731,  0.00003508823, -0.00001285919, -0.00000014250,  0.00002880752,  0.00000239019,  0.00000034305,  0.00000899134,  0.00000017602,  0.00000506531
1326653045491277,  0.00597296015, -0.00042594921,  0.00004267249, -0.00000197816, -0.00000015380,  0.00000680358,  0.00300962966,  0.00007812473,  0.00000062551, -0.00000093361,  0.00001056620,  0.00983187202,  0.00003168291, -0.00003574336, -0.00000008618,  0.00002759497, -0.00000361733,  0.00000062798,  0.00000911443, -0.00000000515,  0.00000502078
1326653049091434,  0.00606565224, -0.00038320611,  0.00004017474, -0.00000449386, -0.00000080902,  0.00001204722,  0.00301342893,  0.00009330217,  0.00000081216, -0.00000209442,  0.00000841728,  0.01021041737,  0.00003638386, -0.00004422415,  0.00000007966,  0.00002317006,  0.00000096089,  0.00000036258,  0.00000860935,  0.00000007730,  0.00000483856
1326653052691591,  0.00619781836, -0.00035611268,  0.00004633064, -0.00000232920, -0.00000132324,  0.00001858767,  0.00301736734,  0.00010175052,  0.00000115918, -0.00000195423,  0.00000556721,  0.01068338673,  0.00003702813, -0.00006060485, -0.00000205907,  0.00001680616, -0.00000016907, -0.00000013201,  0.00000971326,  0.00000017117,  0.00000505835
1326653057491803,  0.00635295968, -0.00039419777,  0.00005749096,  0.00000019901, -0.00000174762,  0.00002500516,  0.00300888292,  0.00010224028,  0.00000176425,  0.00000056201, -0.00000006512,  0.01103717057,  0.00008256184,  0.00000519291,  0.00000029009,  0.00001444496,  0.00000266633, -0.00000007554,  0.00001252022, -0.00000004785,  0.00000515230
1326653061291972,  0.00640268361, -0.00049815501,  0.00006828065, -0.00000057463, -0.00000193849,  0.00001913204,  0.00299986692,  0.00009314017,  0.00000117891,  0.00000082102,  0.00000249488,  0.01094142108,  0.00005844368,  0.00000382654,  0.00000273043,  0.00002274940,  0.00000223655,  0.00000056907,  0.00001328431,  0.00000009317,  0.00000651201
1326653064692123,  0.00639646680, -0.00059493770,  0.00007856700, -0.00000082523, -0.00000144038,  0.00001380083,  0.00294658350,  0.00008533575, -0.00000015154,  0.00000111610,  0.00000826029,  0.01091751687,  0.00003067014, -0.00000143335,  0.00000201398,  0.00002188040,  0.00000124591,  0.00000073762,  0.00001377974, -0.00000008070,  0.00000656366
1326653068292278,  0.00636883702, -0.00067388803,  0.00009357805, -0.00000125653, -0.00000268182,  0.00001178612,  0.00284076684,  0.00008135661,  0.00000062507,  0.00000121663,  0.00001120368,  0.01101480631,  0.00002105868, -0.00001875232,  0.00000235245,  0.00001462100,  0.00000095821,  0.00000069484,  0.00001327079, -0.00000008684,  0.00000511875
1326653071692453,  0.00636110165, -0.00071103523,  0.00011533992, -0.00000115349, -0.00000435301,  0.00000581902,  0.00273560944,  0.00007808736,  0.00000198619,  0.00000116669,  0.00001110924,  0.01130774001,  0.00000546374, -0.00004431535,  0.00000140042,  0.00001474906,  0.00000243808,  0.00000055831,  0.00001323140,  0.00000002790,  0.00000498056
1326653075292578,  0.00637956391, -0.00072857597,  0.00014676840, -0.00000121363, -0.00000541960, -0.00000535668,  0.00261469205,  0.00007368424,  0.00000265175,  0.00000091873,  0.00001411224,  0.01195148902, -0.00002760609, -0.00007592707, -0.00000080922,  0.00001779259,  0.00000283953,  0.00000059695,  0.00001403890,  0.00000010862,  0.00000562791
1326653078892746,  0.00638834684, -0.00070246704,  0.00017826775, -0.00000252133, -0.00000541121, -0.00001199656,  0.00248093145,  0.00007436555,  0.00000332781, -0.00000005950,  0.00001437402,  0.01281070661, -0.00006652746, -0.00009910964, -0.00000192759,  0.00001932832,  0.00000282290,  0.00000028632,  0.00001318506,  0.00000010529,  0.00000551673
1326653082492910,  0.00644131202, -0.00065193288,  0.00020374477, -0.00000211223, -0.00000647647, -0.00002596013,  0.00236776370,  0.00008292421,  0.00000255988,  0.00000027636,  0.00001001198,  0.01413194670, -0.00009930669, -0.00015400311,  0.00000784561,  0.00001802409,  0.00000548112, -0.00000038150,  0.00001681186, -0.00000056273,  0.00000648007